Вернуться в каталог

STARLINK-1569

АктивенСвязьVLEO
NORAD 46039·PAYLOAD·🇺🇸 United States

Запущен Aug 7, 2020 с Cape Canaveral Space Force Station

Loading…

Ближайшие Пролёты (ближайшие 24 часа)

TLE

СвежийSource: CelesTrak SupGP

Эпоха: Sep 15, 2026, 01:34 UTC

1 46039C 20055N   26258.06576389  .00053499  00000+0  17200-2 0  2580
2 46039  53.1581 326.1025 0001135  90.2529 181.0406 15.31683399    12

Отслеживайте STARLINK-1569 в реальном времени с AllMySat

Download on the App Store